This is the latest recevied weather packets stored in our database for station/object SP1BMW-13. If no packets are shown the sender has not sent any weather packets the latest 10 day(s).
| Time | Temp. | Humidity | Pressure | Rain* | Wind** | Luminosity | Snow |
|---|---|---|---|---|---|---|---|
| 1787851336 | 23.33° C | 43% | 1017.1 hPa | 0 mm | 0.45 m/s, 66° | 32 W/m² | - |
| 1787851276 | 23.33° C | 42% | 1017 hPa | 0 mm | 0.45 m/s, 56° | 34 W/m² | - |
| 1787851216 | 23.89° C | 43% | 1017 hPa | 0 mm | 0.45 m/s, 36° | 35 W/m² | - |
| 1787851156 | 23.89° C | 43% | 1017 hPa | 0 mm | 0.45 m/s, 34° | 36 W/m² | - |
| 1787851096 | 23.89° C | 42% | 1017.1 hPa | 0 mm | 0.89 m/s, 46° | 37 W/m² | - |
| 1787851036 | 23.89° C | 41% | 1017.3 hPa | 0 mm | 0.89 m/s, 116° | 38 W/m² | - |
| 1787850976 | 23.89° C | 41% | 1017.2 hPa | 0 mm | 1.79 m/s, 21° | 39 W/m² | - |
| 1787850916 | 23.89° C | 41% | 1017.2 hPa | 0 mm | 0.89 m/s, 45° | 40 W/m² | - |
| 1787850856 | 23.89° C | 41% | 1017.2 hPa | 0 mm | 0.89 m/s, 24° | 41 W/m² | - |
| 1787850796 | 23.89° C | 41% | 1017.2 hPa | 0 mm | 1.34 m/s, 129° | 42 W/m² | - |
| 1787850736 | 23.89° C | 41% | 1017.3 hPa | 0 mm | 0.45 m/s, 94° | 42 W/m² | - |
| 1787850676 | 23.89° C | 42% | 1017.1 hPa | 0 mm | 0.45 m/s, 42° | 42 W/m² | - |
| 1787850616 | 23.89° C | 41% | 1017.2 hPa | 0 mm | 0 m/s | 42 W/m² | - |
| 1787850556 | 23.89° C | 41% | 1017 hPa | 0 mm | 0.89 m/s, 138° | 43 W/m² | - |
| 1787850496 | 23.89° C | 41% | 1017.3 hPa | 0 mm | 0.89 m/s, 56° | 45 W/m² | - |
| 1787850436 | 23.89° C | 41% | 1017.3 hPa | 0 mm | 0 m/s | 45 W/m² | - |
| 1787850376 | 23.89° C | 41% | 1017.4 hPa | 0 mm | 0.45 m/s, 44° | 46 W/m² | - |
| 1787850315 | 24.44° C | 40% | 1017.2 hPa | 0 mm | 0.45 m/s, 133° | 47 W/m² | - |
| 1787850256 | 24.44° C | 40% | 1017.2 hPa | 0 mm | 0.45 m/s, 41° | 45 W/m² | - |
| 1787850196 | 24.44° C | 41% | 1017.4 hPa | 0 mm | 0.45 m/s, 358° | 46 W/m² | - |
| 1787850136 | 24.44° C | 40% | 1017.3 hPa | 0 mm | 0.89 m/s, 61° | 44 W/m² | - |
| 1787850076 | 24.44° C | 39% | 1017.3 hPa | 0 mm | 1.34 m/s, 51° | 48 W/m² | - |
| 1787850016 | 24.44° C | 39% | 1017.3 hPa | 0 mm | 1.34 m/s, 44° | 52 W/m² | - |
| 1787849956 | 24.44° C | 39% | 1017.2 hPa | 0 mm | 0.45 m/s, 166° | 56 W/m² | - |
| 1787849896 | 24.44° C | 40% | 1017.4 hPa | 0 mm | 0.89 m/s, 68° | 57 W/m² | - |
* Rain latest hour (hover to see other rain measurements)
** Current wind speed in m/s (hover to see current wind gust speed)